Location: Hamburg
(53.5500°N, 10.0000°E)
Time: 20:46:48
(UTC+02:00)

A-11 Canister half - All Passes

Search period start: 25 May 2016 00:00
Search period end: 04 June 2016 00:00
Orbit: 1527 x 1683 km, 47.3° (Epoch: 24 May)

Date Brightness Start Highest point End Pass type
(mag) Time Alt. Az. Time Alt. Az. Time Alt. Az.
25 May - 01:56:53 10° W 02:06:10 60° S 02:15:45 10° ESE visible
25 May - 04:01:27 10° W 04:10:13 41° SSW 04:19:13 10° SE visible
25 May - 06:07:37 10° W 06:13:13 17° SW 06:18:54 10° SSW daylight
25 May - 21:29:42 10° S 21:36:59 27° SE 21:44:23 10° E daylight
25 May - 23:31:27 10° SW 23:40:23 52° SSE 23:49:36 10° E visible
26 May - 01:35:22 10° W 01:44:37 60° S 01:54:10 10° ESE visible
26 May - 03:39:54 10° W 03:48:41 42° SSW 03:57:44 10° SE visible
26 May - 05:45:54 10° W 05:51:44 18° SW 05:57:41 10° SSW daylight
26 May - 21:08:22 10° S 21:15:30 25° SE 21:22:44 10° E daylight
26 May - 23:09:57 10° SW 23:18:52 51° SSE 23:28:01 10° E visible
27 May - 01:13:49 10° W 01:23:04 61° S 01:32:36 10° ESE visible
27 May - 03:18:20 10° W 03:27:09 43° SSW 03:36:14 10° SE visible
27 May - 05:24:11 10° W 05:30:16 19° SW 05:36:28 10° S daylight
27 May - 20:47:04 10° S 20:54:01 24° SE 21:01:05 10° E daylight
27 May - 22:48:29 10° SW 22:57:20 50° SSE 23:06:26 10° E visible
28 May - 00:52:18 10° W 01:01:31 61° S 01:11:02 10° ESE visible
28 May - 02:56:47 10° W 03:05:37 44° SSW 03:14:44 10° SE visible
28 May - 05:02:29 10° W 05:08:47 20° SW 05:15:13 10° S daylight
28 May - 20:25:46 10° S 20:32:34 23° SE 20:39:25 10° E daylight
28 May - 22:27:00 10° SW 22:35:49 49° SSE 22:44:50 10° E visible
29 May - 00:30:46 10° WSW 00:39:57 61° S 00:49:27 10° ESE visible
29 May - 02:35:14 10° W 02:44:05 45° SSW 02:53:13 10° SE visible
29 May - 04:40:48 10° W 04:47:18 21° SW 04:53:56 10° S daylight
29 May - 20:04:29 10° S 20:11:05 22° SE 20:17:45 10° E daylight
29 May - 22:05:32 10° SW 22:14:17 48° SSE 22:23:16 10° E visible
30 May - 00:09:14 10° WSW 00:18:25 61° S 00:27:53 10° ESE visible
30 May - 02:13:40 10° W 02:22:34 46° SSW 02:31:43 10° SE visible
30 May - 04:19:09 10° W 04:25:49 22° SW 04:32:39 10° S daylight
30 May - 19:43:14 10° S 19:49:37 21° SE 19:56:04 10° E daylight
30 May - 21:44:04 10° SW 21:52:46 46° SSE 22:01:40 10° E daylight
30 May - 23:47:42 10° WSW 23:56:52 61° S 00:06:18 10° ESE visible
31 May - 01:52:07 10° W 02:01:02 47° SSW 02:10:12 10° SE visible
31 May - 03:57:29 10° W 04:04:20 23° SW 04:11:20 10° S visible
31 May - 19:22:00 10° S 19:28:10 20° SE 19:34:23 10° E daylight
31 May - 21:22:36 10° SW 21:31:15 45° SSE 21:40:05 10° E daylight
31 May - 23:26:11 10° WSW 23:35:20 61° S 23:44:44 10° ESE visible
01 Jun - 01:30:35 10° W 01:39:29 48° SSW 01:48:40 10° SE visible
01 Jun - 03:35:51 10° W 03:42:52 23° SW 03:50:01 10° S visible
01 Jun - 19:00:46 10° S 19:06:42 19° SE 19:12:41 10° E daylight
01 Jun - 21:01:09 10° SW 21:09:45 44° SSE 21:18:30 10° E daylight
01 Jun - 23:04:39 10° WSW 23:13:47 61° S 23:23:10 10° E visible
02 Jun - 01:09:02 10° W 01:17:58 49° SSW 01:27:09 10° SE visible
02 Jun - 03:14:13 10° W 03:21:22 24° SW 03:28:40 10° S visible
02 Jun - 18:39:34 10° S 18:45:15 18° SE 18:50:57 10° E daylight
02 Jun - 20:39:41 10° SW 20:48:14 43° SSE 20:56:55 10° E daylight
02 Jun - 22:43:08 10° WSW 22:52:14 60° S 23:01:35 10° E visible
03 Jun - 00:47:29 10° W 00:56:26 50° SSW 01:05:38 10° SE visible
03 Jun - 02:52:37 10° W 02:59:52 25° SW 03:07:19 10° S visible
03 Jun - 18:18:23 10° SSE 18:23:48 17° SE 18:29:13 10° E daylight
03 Jun - 20:18:15 10° SW 20:26:43 42° SSE 20:35:20 10° E daylight
03 Jun - 22:21:36 10° WSW 22:30:42 60° S 22:40:01 10° E visible
